When you browse on this site, cookies collect data to enhance your experience and personalize the content and advertising you see.
Visit our Privacy Policy to learn more. By continuing to use the site, you agree to this use of cookies and data.
  • In Hungary
  • List of Countries
  • For 7 days
  • Water Temperature
  • Satellite Maps
  • Weather Map
  • News
  • Weather Widgets
  • user-avatar
    Login

    Hourly Weather Herentals

    Today, 19 January, Saturday

    Time Temperature Precipitation Wind Pressure Humidity
    00:00 -1°C° 0 mm 2 mps 762 mmHg 75%
    01:00 -1°C° 0 mm 2 mps 762 mmHg 76%
    02:00 -2°C° 0 mm 2 mps 762 mmHg 77%
    03:00 -2°C° 0 mm 2 mps 761 mmHg 78%
    04:00 -2°C° 0 mm 2 mps 761 mmHg 78%
    05:00 -2°C° 0 mm 2 mps 761 mmHg 79%
    06:00 -2°C° 0 mm 2 mps 761 mmHg 79%
    07:00 -1°C° 0 mm 3 mps 761 mmHg 76%
    08:00 -1°C° 0 mm 3 mps 760 mmHg 73%
    09:00 -1°C° 0 mm 3 mps 760 mmHg 70%
    10:00 0°C° 0 mm 3 mps 760 mmHg 65%
    11:00 +1°C° 0 mm 3 mps 760 mmHg 59%
    12:00 +1°C° 0 mm 4 mps 759 mmHg 53%
    13:00 +2°C° 0 mm 3 mps 759 mmHg 53%
    14:00 +2°C° 0 mm 3 mps 759 mmHg 54%
    15:00 +3°C° 0 mm 2 mps 758 mmHg 54%
    16:00 +2°C° 0 mm 2 mps 758 mmHg 57%
    17:00 0°C° 0 mm 3 mps 758 mmHg 60%
    18:00 -1°C° 0 mm 3 mps 758 mmHg 63%
    19:00 -1°C° 0 mm 3 mps 758 mmHg 65%
    20:00 -1°C° 0 mm 2 mps 758 mmHg 67%
    21:00 -2°C° 0 mm 2 mps 758 mmHg 69%
    22:00 -2°C° 0 mm 2 mps 759 mmHg 70%
    23:00 -2°C° 0 mm 2 mps 759 mmHg 71%

    Tomorrow, 20 January, Sunday

    Time Temperature Precipitation Wind Pressure Humidity
    00:00 -2°C° 0 mm 2 mps 759 mmHg 73%
    01:00 -2°C° 0 mm 2 mps 759 mmHg 72%
    02:00 -2°C° 0 mm 2 mps 759 mmHg 72%
    03:00 -2°C° 0 mm 2 mps 759 mmHg 71%
    04:00 -2°C° 0 mm 2 mps 759 mmHg 70%
    05:00 -3°C° 0 mm 2 mps 759 mmHg 69%
    06:00 -3°C° 0 mm 2 mps 759 mmHg 67%
    07:00 -2°C° 0 mm 2 mps 760 mmHg 65%
    08:00 -2°C° 0 mm 2 mps 760 mmHg 63%
    09:00 -2°C° 0 mm 2 mps 761 mmHg 60%
    10:00 -1°C° 0 mm 2 mps 761 mmHg 56%
    11:00 +1°C° 0 mm 2 mps 761 mmHg 52%
    12:00 +2°C° 0 mm 2 mps 761 mmHg 47%
    13:00 +2°C° 0 mm 2 mps 761 mmHg 49%
    14:00 +2°C° 0 mm 2 mps 761 mmHg 51%
    15:00 +2°C° 0 mm 2 mps 762 mmHg 53%
    16:00 +1°C° 0 mm 2 mps 762 mmHg 56%
    17:00 -1°C° 0 mm 2 mps 763 mmHg 60%
    18:00 -2°C° 0 mm 2 mps 763 mmHg 63%
    19:00 -2°C° 0 mm 2 mps 764 mmHg 62%
    20:00 -2°C° 0 mm 2 mps 765 mmHg 61%
    21:00 -2°C° 0 mm 2 mps 765 mmHg 60%
    22:00 0°C° 0 mm 1 mps 765 mmHg 59%
    23:00 0°C° 0 mm 1 mps 766 mmHg 58%

    Day after tomorrow, 21 January, Monday

    Time Temperature Precipitation Wind Pressure Humidity
    00:00 0°C° 0 mm 1 mps 766 mmHg 57%
    01:00 0°C° 0 mm 1 mps 766 mmHg 56%
    02:00 0°C° 0 mm 1 mps 766 mmHg 56%
    03:00 -1°C° 0 mm 0 mps 767 mmHg 55%
    04:00 -1°C° 0 mm 0 mps 767 mmHg 55%
    05:00 -2°C° 0 mm 0 mps 767 mmHg 54%
    06:00 -2°C° 0 mm 0 mps 767 mmHg 54%
    07:00 -1°C° 0 mm 0 mps 767 mmHg 52%
    08:00 -1°C° 0 mm 0 mps 767 mmHg 51%
    09:00 0°C° 0 mm 0 mps 767 mmHg 49%
    10:00 +2°C° 0 mm 1 mps 767 mmHg 46%
    11:00 +3°C° 0 mm 1 mps 766 mmHg 43%
    12:00 +4°C° 0 mm 1 mps 766 mmHg 40%
    13:00 +3°C° 0 mm 1 mps 766 mmHg 43%
    14:00 +3°C° 0 mm 1 mps 765 mmHg 46%
    15:00 +3°C° 0 mm 1 mps 765 mmHg 49%
    16:00 +2°C° 0 mm 1 mps 764 mmHg 52%
    17:00 -1°C° 0 mm 2 mps 764 mmHg 55%
    18:00 -2°C° 0 mm 2 mps 764 mmHg 59%
    19:00 -2°C° 0 mm 3 mps 763 mmHg 60%
    20:00 -2°C° 0 mm 3 mps 763 mmHg 62%
    21:00 -3°C° 0 mm 4 mps 762 mmHg 63%
    22:00 -3°C° 0 mm 4 mps 761 mmHg 64%
    23:00 -4°C° 0 mm 5 mps 760 mmHg 64%

    22 January, Tuesday

    Time Temperature Precipitation Wind Pressure Humidity
    00:00 -4°C° 0 mm 5 mps 759 mmHg 64%
    01:00 -2°C° 0 mm 5 mps 758 mmHg 65%
    02:00 -3°C° 0 mm 6 mps 756 mmHg 66%
    03:00 -2°C° 0 mm 7 mps 755 mmHg 67%
    04:00 -2°C° 0.4 mm 7 mps 754 mmHg 71%
    05:00 -2°C° 0.4 mm 7 mps 753 mmHg 76%
    06:00 -1°C° 0.4 mm 8 mps 752 mmHg 81%
    07:00 -1°C° 1 mm 7 mps 751 mmHg 84%
    08:00 -1°C° 1 mm 6 mps 751 mmHg 87%
    09:00 0°C° 1 mm 5 mps 751 mmHg 90%
    10:00 0°C° 0.2 mm 4 mps 750 mmHg 89%
    11:00 0°C° 0.2 mm 4 mps 750 mmHg 87%
    12:00 +2°C° 0.2 mm 3 mps 749 mmHg 85%
    13:00 +1°C° 0 mm 3 mps 749 mmHg 85%
    14:00 +1°C° 0 mm 3 mps 748 mmHg 86%
    15:00 +1°C° 0 mm 3 mps 748 mmHg 86%
    16:00 0°C° 0 mm 3 mps 748 mmHg 88%
    17:00 -1°C° 0 mm 3 mps 747 mmHg 90%
    18:00 -2°C° 0 mm 3 mps 747 mmHg 92%
    19:00 -2°C° 0 mm 3 mps 747 mmHg 92%
    20:00 -2°C° 0 mm 3 mps 747 mmHg 92%
    21:00 -2°C° 0 mm 3 mps 746 mmHg 92%
    22:00 -3°C° 0 mm 2 mps 746 mmHg 92%
    23:00 -3°C° 0 mm 2 mps 746 mmHg 92%

    23 January, Wednesday

    Time Temperature Precipitation Wind Pressure Humidity
    00:00 -3°C° 0 mm 2 mps 746 mmHg 92%
    01:00 -3°C° 0 mm 2 mps 745 mmHg 92%
    02:00 -3°C° 0 mm 2 mps 745 mmHg 92%
    03:00 -3°C° 0 mm 2 mps 744 mmHg 92%
    04:00 -1°C° 0 mm 1 mps 744 mmHg 91%
    05:00 -1°C° 0 mm 1 mps 744 mmHg 91%
    06:00 -1°C° 0 mm 1 mps 744 mmHg 91%
    07:00 -1°C° 0 mm 1 mps 744 mmHg 89%
    08:00 0°C° 0 mm 1 mps 744 mmHg 88%
    09:00 0°C° 0 mm 1 mps 744 mmHg 86%
    10:00 +1°C° 0 mm 1 mps 744 mmHg 83%
    11:00 +1°C° 0 mm 0 mps 744 mmHg 80%
    12:00 +2°C° 0 mm 0 mps 744 mmHg 77%
    13:00 +1°C° 0 mm 0 mps 744 mmHg 79%
    14:00 +1°C° 0 mm 0 mps 744 mmHg 81%
    15:00 +1°C° 0 mm 0 mps 744 mmHg 83%
    16:00 0°C° 0 mm 0 mps 745 mmHg 85%
    17:00 0°C° 0 mm 0 mps 745 mmHg 86%
    18:00 0°C° 0 mm 1 mps 745 mmHg 87%
    19:00 -1°C° 0 mm 0 mps 746 mmHg 87%
    20:00 -2°C° 0 mm 0 mps 746 mmHg 87%
    21:00 -2°C° 0 mm 0 mps 746 mmHg 87%
    22:00 -2°C° 0 mm 0 mps 747 mmHg 87%
    23:00 -1°C° 0 mm 1 mps 747 mmHg 87%

    24 January, Thursday

    Time Temperature Precipitation Wind Pressure Humidity
    00:00 -1°C° 0 mm 1 mps 747 mmHg 88%
    01:00 -1°C° 0 mm 1 mps 748 mmHg 87%
    02:00 -1°C° 0 mm 1 mps 748 mmHg 87%
    03:00 -3°C° 0 mm 2 mps 748 mmHg 87%
    04:00 -3°C° 0 mm 2 mps 749 mmHg 88%
    05:00 -3°C° 0 mm 2 mps 749 mmHg 89%
    06:00 -4°C° 0 mm 3 mps 750 mmHg 91%
    07:00 -4°C° 0 mm 3 mps 750 mmHg 90%
    08:00 -2°C° 0 mm 3 mps 751 mmHg 89%
    09:00 -3°C° 0 mm 4 mps 751 mmHg 88%
    10:00 -2°C° 0 mm 4 mps 752 mmHg 82%
    11:00 -2°C° 0 mm 4 mps 752 mmHg 77%
    12:00 -1°C° 0 mm 5 mps 752 mmHg 72%
    13:00 -1°C° 0 mm 4 mps 752 mmHg 73%
    14:00 -1°C° 0 mm 4 mps 752 mmHg 75%
    15:00 -2°C° 0 mm 4 mps 752 mmHg 76%
    16:00 -2°C° 0 mm 4 mps 753 mmHg 80%
    17:00 -2°C° 0 mm 3 mps 753 mmHg 84%
    18:00 -2°C° 0 mm 3 mps 753 mmHg 88%
    19:00 -2°C° 0 mm 3 mps 754 mmHg 89%
    20:00 -2°C° 0 mm 3 mps 754 mmHg 90%
    21:00 -2°C° 0 mm 2 mps 754 mmHg 91%
    22:00 -3°C° 0 mm 2 mps 754 mmHg 91%
    23:00 -3°C° 0 mm 2 mps 754 mmHg 90%
    Show more